Flag for Canada Weather past 2 weeks in Victoria, British Columbia, Canada

Now
52 °F

Passing clouds.


Feels Like: 48 °F
Forecast: 47 / 51 °F
Wind: 12 mph from West

Location: Victoria Int. Airportb. C.

Current Time: Dec 21, 2014 at 2:17:05 AM

Latest Report: Dec 21, 2014 at 1:00 AM


Visibility: 20 mi

Pressure: 29.55 "Hg

Humidity: 72%

Dew point: 43 °F

Location of VictoriaLocation

Historic Weather in Victoria — Graph

°F

Victoria temperature yesterday

Maximum temperature yesterday: 55 °F (at 8:00 PM)
Minimum temperature yesterday: 46 °F (at 5:00 AM)
Average temperature yesterday: 49 °F

Past Weeks' High & Low Weather Summary

 TemperatureHumidityPressure
High61 °F (Dec 9, 12:00 PM)100% (Dec 6, 2:00 AM)30.26 "Hg (Dec 6, 2:00 AM)
Low30 °F (Dec 15, 2:00 AM)63% (Dec 9, 12:00 PM)29.10 "Hg (Dec 11, 8:00 PM)
Average46 °F89%29.80 "Hg
* Reported Dec 6 1:00 AM — Dec 21 1:00 AM, Victoria, Weather by CustomWeather, © 2014

Note: Actual official high and low records may vary slightly from our data, if they occured in-between our weather recording intervals... More about our weather records

Advertising

Victoria weather history for previous 24 hours

 ConditionsComfort  
Time TempWeatherWind HumidityBarometerVisibility
1:00 AM
Dec 21
52 °FPassing clouds.12 mph72%29.55 "Hg20 mi
12:00 AM54 °FPassing clouds.16 mph72%29.49 "Hg20 mi
11:00 PM
Dec 20
55 °FPassing clouds.14 mph72%29.39 "Hg20 mi
10:54 PM55 °FPassing clouds.15 mph72%29.38 "Hg20 mi
10:00 PM55 °FLight rain. Partly cloudy.22 mph82%29.33 "Hg20 mi
9:00 PM55 °FPartly cloudy.25 mph77%29.31 "Hg20 mi
8:00 PM55 °FLight rain. Partly cloudy.3 mph77%29.31 "Hg30 mi
7:00 PM50 °FLight rain. Partly cloudy.8 mph94%29.30 "Hg20 mi
6:00 PM48 °FLight rain. Mostly cloudy.13 mph94%29.33 "Hg10 mi
5:00 PM48 °FLight rain. Fog.14 mph94%29.33 "Hg4 mi
4:00 PM48 °FRain. Fog.18 mph94%29.35 "Hg3 mi
3:00 PM48 °FLight rain. Fog.18 mph94%29.37 "Hg6 mi
2:00 PM48 °FLight rain. Fog.22 mph94%29.41 "Hg5 mi
1:00 PM48 °FLight rain. Mostly cloudy.18 mph94%29.44 "Hg7 mi
12:00 PM48 °FLight rain. Mostly cloudy.18 mph87%29.49 "Hg15 mi
11:00 AM48 °FLight rain. Mostly cloudy.21 mph82%29.52 "Hg15 mi
10:55 AM48 °FLight rain. Mostly cloudy.16 mph82%29.53 "Hg20 mi
10:00 AM48 °FLight rain. Mostly cloudy.20 mph82%29.56 "Hg20 mi
9:51 AM48 °FLight rain. Partly sunny.20 mph82%29.56 "Hg20 mi
9:00 AM48 °FPartly sunny.15 mph82%29.55 "Hg30 mi
8:00 AM48 °FOvercast.17 mph82%29.56 "Hg30 mi
7:00 AM46 °FOvercast.18 mph87%29.58 "Hg20 mi
6:00 AM46 °FLight rain. Overcast.20 mph87%29.59 "Hg15 mi
5:45 AM46 °FLight rain. Mostly cloudy.18 mph87%29.59 "Hg15 mi
5:00 AM46 °FLight rain. Mostly cloudy.21 mph87%29.62 "Hg20 mi
4:00 AM48 °FLight rain. Mostly cloudy.15 mph82%29.65 "Hg20 mi
3:00 AM48 °FMostly cloudy.22 mph82%29.67 "Hg20 mi
2:00 AM48 °FSprinkles. Overcast.20 mph82%29.70 "Hg30 mi
Weather by CustomWeather, © 2014

See weather overviewHow to use our weather pages